Cote D IVoirian Star — A8SL4 — position and weather

sailwx.info

Track history (hours):
 
Tides and Currents Weather Stations Pressure Air Temp Water Temp Dewpoint Dewpoint Depression Visibility Wind Speed Wind Dir Waves Ship Positions

Cote D IVoirian Star

Last reported at 2014-Oct-26 07:18 UTC. Time now 2014-Nov-01 08:30 UTC.
Position N 30°33' W 015°05'.

Length 185 m; draft 8 m.

Type: Cargo ship. MMSI: 636014241.

Date/timePositionNaut miles runAvg speedWind from/ knotsBaromVisibWave heightAir tempDewpointWater temp
2014-Oct-26 07:18N 30°33' W 015°05'1519.8
2014-Oct-26 06:32N 30°48' W 015°00'3919.8
2014-Oct-26 04:33N 31°26' W 014°48'34220.0
2014-Oct-25 11:27N 36°55' W 012°55'1920.2
2014-Oct-25 10:32N 37°13' W 012°49'2220.0
2014-Oct-25 09:27N 37°33' W 012°41'1819.9
2014-Oct-25 08:33N 37°51' W 012°35'2020.1
2014-Oct-25 07:33N 38°10' W 012°28'2019.8
2014-Oct-25 06:33N 38°29' W 012°21'79519.4
2014-Oct-23 13:28N 49°57' W 003°04'6920.4
2014-Oct-23 10:07N 50°18' W 001°22'3316.8
2014-Oct-23 08:10N 50°26' W 000°32'1416.8
2014-Oct-23 07:21N 50°27' W 000°11'1517.6
2014-Oct-23 06:30N 50°32' E 000°11'1818.9
2014-Oct-23 05:33N 50°38' E 000°38'2020.4
2014-Oct-23 04:33N 50°50' E 001°04'1818.3
2014-Oct-23 03:34N 51°04' E 001°23'4 4.1
2014-Oct-23 02:33N 51°08' E 001°21'0 0.0
2014-Oct-23 01:27N 51°08' E 001°20'0 0.0
2014-Oct-23 00:30N 51°08' E 001°20'0 0.0
2014-Oct-22 20:27N 51°08' E 001°20'0 0.0
2014-Oct-22 18:30N 51°08' E 001°20'0 0.0
2014-Oct-22 16:15N 51°08' E 001°20'0 0.0
2014-Oct-22 15:27N 51°08' E 001°20'0 0.0
2014-Oct-22 09:27N 51°08' E 001°21'0 0.0
2014-Oct-22 08:33N 51°08' E 001°21'0 0.4
2014-Oct-22 07:33N 51°07' E 001°21'2 2.4
2014-Oct-22 06:33N 51°07' E 001°25'3 3.5
2014-Oct-22 05:33N 51°10' E 001°26'0 0.3
2014-Oct-22 04:31N 51°11' E 001°26'0 0.0
2014-Oct-22 03:31N 51°11' E 001°27'0 0.0
2014-Oct-22 02:31N 51°11' E 001°27'0 0.1
2014-Oct-22 01:31N 51°11' E 001°27'0 0.1
2014-Oct-22 00:31N 51°11' E 001°27'0 0.1
2014-Oct-21 23:31N 51°11' E 001°27'0 0.0
2014-Oct-21 22:31N 51°11' E 001°27'0 0.1
2014-Oct-21 21:31N 51°11' E 001°27'0 0.1
2014-Oct-21 20:31N 51°11' E 001°27'0 0.1
2014-Oct-21 19:31N 51°11' E 001°27'0 0.1
2014-Oct-21 18:31N 51°11' E 001°27'0 0.0
2014-Oct-21 17:31N 51°11' E 001°27'0 0.0
2014-Oct-21 16:34N 51°11' E 001°27'0 0.1
2014-Oct-21 15:33N 51°11' E 001°27'8 8.1
2014-Oct-21 14:34N 51°11' E 001°40'1514.8
2014-Oct-21 13:34N 51°22' E 001°55'1313.0
2014-Oct-21 12:33N 51°21' E 002°15'1413.9
2014-Oct-21 11:33N 51°23' E 002°37'1111.0
2014-Oct-21 10:33N 51°23' E 002°55'1312.5
2014-Oct-21 09:33N 51°25' E 003°15'1312.8
2014-Oct-21 08:33N 51°26' E 003°35'10 9.7
2014-Oct-21 07:34N 51°21' E 003°49'9 9.5
2014-Oct-21 06:34N 51°23' E 004°04'1110.5
2014-Oct-21 05:33N 51°18' E 004°19'2 2.1
2014-Oct-21 04:34N 51°16' E 004°17'1 1.2
2014-Oct-21 03:28N 51°16' E 004°15'0 0.0
2014-Oct-21 02:31N 51°16' E 004°15'0 0.0
2014-Oct-21 01:28N 51°16' E 004°15'0 0.0
2014-Oct-21 00:31N 51°16' E 004°15'0 0.0
2014-Oct-20 23:31N 51°16' E 004°15'0 0.0
2014-Oct-20 22:31N 51°16' E 004°15'0 0.0
2014-Oct-20 21:28N 51°16' E 004°15'0 0.0
2014-Oct-20 20:32N 51°16' E 004°15'0 0.0
2014-Oct-20 19:28N 51°16' E 004°15'0 0.0
2014-Oct-20 18:31N 51°16' E 004°15'0 0.0
2014-Oct-20 17:31N 51°16' E 004°15'0 0.0
2014-Oct-20 16:31N 51°16' E 004°15'0 0.0
2014-Oct-20 15:31N 51°16' E 004°15'0 0.0
2014-Oct-20 14:28N 51°16' E 004°15'0 0.0
2014-Oct-20 13:31N 51°16' E 004°15'0 0.0
2014-Oct-20 12:31N 51°16' E 004°15'0 0.0
2014-Oct-20 11:28N 51°16' E 004°15'0 0.0
2014-Oct-20 10:31N 51°16' E 004°15'0 0.0
2014-Oct-20 09:28N 51°16' E 004°15'0 0.0
2014-Oct-20 08:31N 51°16' E 004°15'0 0.0
2014-Oct-20 07:31N 51°16' E 004°15'0 0.0
2014-Oct-20 06:31N 51°16' E 004°15'0 0.0
2014-Oct-20 05:32N 51°16' E 004°15'0 0.0
2014-Oct-20 04:31N 51°16' E 004°15'0 0.0
2014-Oct-20 03:31N 51°16' E 004°15'0 0.0
2014-Oct-20 02:28N 51°16' E 004°15'0 0.0
2014-Oct-20 01:31N 51°16' E 004°15'0 0.0
2014-Oct-20 00:31N 51°16' E 004°15'0 0.0
2014-Oct-19 23:10N 51°16' E 004°15'0 0.0
2014-Oct-19 22:31N 51°16' E 004°15'0 0.0
2014-Oct-19 21:31N 51°16' E 004°15'0 0.0
2014-Oct-19 20:31N 51°16' E 004°15'0 0.0
2014-Oct-19 19:31N 51°16' E 004°15'0 0.0
2014-Oct-19 18:31N 51°16' E 004°15'0 0.0
2014-Oct-19 17:31N 51°16' E 004°15'0 0.0
2014-Oct-19 16:28N 51°16' E 004°15'0 0.0
2014-Oct-19 15:31N 51°16' E 004°15'0 0.0
2014-Oct-19 14:31N 51°16' E 004°15'0 0.0
2014-Oct-19 13:31N 51°16' E 004°15'0 0.0
2014-Oct-19 12:31N 51°16' E 004°15'0 0.0
2014-Oct-19 11:28N 51°16' E 004°15'0 0.0
2014-Oct-19 10:28N 51°16' E 004°15'0 0.0
2014-Oct-19 09:31N 51°16' E 004°15'0 0.0
2014-Oct-19 08:31N 51°16' E 004°15'0 0.0
2014-Oct-19 07:33N 51°16' E 004°15'1 1.3
2014-Oct-19 06:34N 51°16' E 004°17'2 2.0
2014-Oct-19 05:34N 51°18' E 004°18'9 8.7
2014-Oct-19 04:33N 51°22' E 004°06'8 8.1
2014-Oct-19 03:34N 51°21' E 003°53'1110.9
2014-Oct-19 02:33N 51°26' E 003°38'1010.2
2014-Oct-19 01:33N 51°24' E 003°22'1413.8
2014-Oct-19 00:33N 51°23' E 002°60'1312.3
2014-Oct-18 23:32N 51°22' E 002°39'1313.2
2014-Oct-18 22:33N 51°19' E 002°20'1716.9
2014-Oct-18 21:33N 51°10' E 001°56'1818.2
2014-Oct-18 20:33N 50°59' E 001°34'2120.9
2014-Oct-18 19:32N 50°40' E 001°18'  
Track history (hours):
 
Tides and Currents Weather Stations Pressure Air Temp Water Temp Dewpoint Dewpoint Depression Visibility Wind Speed Wind Dir Waves Ship Positions

Cote D IVoirian Star

Last reported at 2014-Oct-26 07:18 UTC. Time now 2014-Nov-01 08:30 UTC.
Position N 30°33' W 015°05'.

Length 185 m; draft 8 m.

Type: Cargo ship. MMSI: 636014241.

Date/timePositionNaut miles runAvg speedWind from/ knotsBaromVisibWave heightAir tempDewpointWater temp
2014-Oct-26 07:18N 30°33' W 015°05'1519.8
2014-Oct-26 06:32N 30°48' W 015°00'3919.8
2014-Oct-26 04:33N 31°26' W 014°48'34220.0
2014-Oct-25 11:27N 36°55' W 012°55'1920.2
2014-Oct-25 10:32N 37°13' W 012°49'2220.0
2014-Oct-25 09:27N 37°33' W 012°41'1819.9
2014-Oct-25 08:33N 37°51' W 012°35'2020.1
2014-Oct-25 07:33N 38°10' W 012°28'2019.8
2014-Oct-25 06:33N 38°29' W 012°21'79519.4
2014-Oct-23 13:28N 49°57' W 003°04'6920.4
2014-Oct-23 10:07N 50°18' W 001°22'3316.8
2014-Oct-23 08:10N 50°26' W 000°32'1416.8
2014-Oct-23 07:21N 50°27' W 000°11'1517.6
2014-Oct-23 06:30N 50°32' E 000°11'1818.9
2014-Oct-23 05:33N 50°38' E 000°38'2020.4
2014-Oct-23 04:33N 50°50' E 001°04'1818.3
2014-Oct-23 03:34N 51°04' E 001°23'4 4.1
2014-Oct-23 02:33N 51°08' E 001°21'0 0.0
2014-Oct-23 01:27N 51°08' E 001°20'0 0.0
2014-Oct-23 00:30N 51°08' E 001°20'0 0.0
2014-Oct-22 20:27N 51°08' E 001°20'0 0.0
2014-Oct-22 18:30N 51°08' E 001°20'0 0.0
2014-Oct-22 16:15N 51°08' E 001°20'0 0.0
2014-Oct-22 15:27N 51°08' E 001°20'0 0.0
2014-Oct-22 09:27N 51°08' E 001°21'0 0.0
2014-Oct-22 08:33N 51°08' E 001°21'0 0.4
2014-Oct-22 07:33N 51°07' E 001°21'2 2.4
2014-Oct-22 06:33N 51°07' E 001°25'3 3.5
2014-Oct-22 05:33N 51°10' E 001°26'0 0.3
2014-Oct-22 04:31N 51°11' E 001°26'0 0.0
2014-Oct-22 03:31N 51°11' E 001°27'0 0.0
2014-Oct-22 02:31N 51°11' E 001°27'0 0.1
2014-Oct-22 01:31N 51°11' E 001°27'0 0.1
2014-Oct-22 00:31N 51°11' E 001°27'0 0.1
2014-Oct-21 23:31N 51°11' E 001°27'0 0.0
2014-Oct-21 22:31N 51°11' E 001°27'0 0.1
2014-Oct-21 21:31N 51°11' E 001°27'0 0.1
2014-Oct-21 20:31N 51°11' E 001°27'0 0.1
2014-Oct-21 19:31N 51°11' E 001°27'0 0.1
2014-Oct-21 18:31N 51°11' E 001°27'0 0.0
2014-Oct-21 17:31N 51°11' E 001°27'0 0.0
2014-Oct-21 16:34N 51°11' E 001°27'0 0.1
2014-Oct-21 15:33N 51°11' E 001°27'8 8.1
2014-Oct-21 14:34N 51°11' E 001°40'1514.8
2014-Oct-21 13:34N 51°22' E 001°55'1313.0
2014-Oct-21 12:33N 51°21' E 002°15'1413.9
2014-Oct-21 11:33N 51°23' E 002°37'1111.0
2014-Oct-21 10:33N 51°23' E 002°55'1312.5
2014-Oct-21 09:33N 51°25' E 003°15'1312.8
2014-Oct-21 08:33N 51°26' E 003°35'10 9.7
2014-Oct-21 07:34N 51°21' E 003°49'9 9.5
2014-Oct-21 06:34N 51°23' E 004°04'1110.5
2014-Oct-21 05:33N 51°18' E 004°19'2 2.1
2014-Oct-21 04:34N 51°16' E 004°17'1 1.2
2014-Oct-21 03:28N 51°16' E 004°15'0 0.0
2014-Oct-21 02:31N 51°16' E 004°15'0 0.0
2014-Oct-21 01:28N 51°16' E 004°15'0 0.0
2014-Oct-21 00:31N 51°16' E 004°15'0 0.0
2014-Oct-20 23:31N 51°16' E 004°15'0 0.0
2014-Oct-20 22:31N 51°16' E 004°15'0 0.0
2014-Oct-20 21:28N 51°16' E 004°15'0 0.0
2014-Oct-20 20:32N 51°16' E 004°15'0 0.0
2014-Oct-20 19:28N 51°16' E 004°15'0 0.0
2014-Oct-20 18:31N 51°16' E 004°15'0 0.0
2014-Oct-20 17:31N 51°16' E 004°15'0 0.0
2014-Oct-20 16:31N 51°16' E 004°15'0 0.0
2014-Oct-20 15:31N 51°16' E 004°15'0 0.0
2014-Oct-20 14:28N 51°16' E 004°15'0 0.0
2014-Oct-20 13:31N 51°16' E 004°15'0 0.0
2014-Oct-20 12:31N 51°16' E 004°15'0 0.0
2014-Oct-20 11:28N 51°16' E 004°15'0 0.0
2014-Oct-20 10:31N 51°16' E 004°15'0 0.0
2014-Oct-20 09:28N 51°16' E 004°15'0 0.0
2014-Oct-20 08:31N 51°16' E 004°15'0 0.0
2014-Oct-20 07:31N 51°16' E 004°15'0 0.0
2014-Oct-20 06:31N 51°16' E 004°15'0 0.0
2014-Oct-20 05:32N 51°16' E 004°15'0 0.0
2014-Oct-20 04:31N 51°16' E 004°15'0 0.0
2014-Oct-20 03:31N 51°16' E 004°15'0 0.0
2014-Oct-20 02:28N 51°16' E 004°15'0 0.0
2014-Oct-20 01:31N 51°16' E 004°15'0 0.0
2014-Oct-20 00:31N 51°16' E 004°15'0 0.0
2014-Oct-19 23:10N 51°16' E 004°15'0 0.0
2014-Oct-19 22:31N 51°16' E 004°15'0 0.0
2014-Oct-19 21:31N 51°16' E 004°15'0 0.0
2014-Oct-19 20:31N 51°16' E 004°15'0 0.0
2014-Oct-19 19:31N 51°16' E 004°15'0 0.0
2014-Oct-19 18:31N 51°16' E 004°15'0 0.0
2014-Oct-19 17:31N 51°16' E 004°15'0 0.0
2014-Oct-19 16:28N 51°16' E 004°15'0 0.0
2014-Oct-19 15:31N 51°16' E 004°15'0 0.0
2014-Oct-19 14:31N 51°16' E 004°15'0 0.0
2014-Oct-19 13:31N 51°16' E 004°15'0 0.0
2014-Oct-19 12:31N 51°16' E 004°15'0 0.0
2014-Oct-19 11:28N 51°16' E 004°15'0 0.0
2014-Oct-19 10:28N 51°16' E 004°15'0 0.0
2014-Oct-19 09:31N 51°16' E 004°15'0 0.0
2014-Oct-19 08:31N 51°16' E 004°15'0 0.0
2014-Oct-19 07:33N 51°16' E 004°15'1 1.3
2014-Oct-19 06:34N 51°16' E 004°17'2 2.0
2014-Oct-19 05:34N 51°18' E 004°18'9 8.7
2014-Oct-19 04:33N 51°22' E 004°06'8 8.1
2014-Oct-19 03:34N 51°21' E 003°53'1110.9
2014-Oct-19 02:33N 51°26' E 003°38'1010.2
2014-Oct-19 01:33N 51°24' E 003°22'1413.8
2014-Oct-19 00:33N 51°23' E 002°60'1312.3
2014-Oct-18 23:32N 51°22' E 002°39'1313.2
2014-Oct-18 22:33N 51°19' E 002°20'1716.9
2014-Oct-18 21:33N 51°10' E 001°56'1818.2
2014-Oct-18 20:33N 50°59' E 001°34'2120.9
2014-Oct-18 19:32N 50°40' E 001°18'  

Dump ship's entire track history